BREEZE-M DEB, 39989

Orbit data source: Space-Track

BREEZE-M DEB, 39989 is space debris in HEO originally from a launch on Fri, 14 Mar 2008 UTC launched from the Tyuratam Missile And Space Complex (TTMTR). Debris objects in space refer to the collection of defunct objects orbiting the Earth. Examples of debris include non-operational satellites, rocket bodies, and fragments generated from explosions, collisions, or faulty payload assembly.

Loading next visibility...
Identifier
39989, 2008-011DN
Orbit
HEO
Country
Flag of CISCIS
Related business
Manufacturer
Unknown
Mission
Spacecraft
Bus & Motor
Unknown
Mass
Unknown
Launch date (UTC)
2008-03-14 (18 years ago)
Launch vehicle
Unknown
Launch site
Tyuratam Missile And Space Complex (TTMTR)
Object type
Payload
Rocket body
Debris
Shape & HBR
Unknown shape, 0.7 m
Radar Cross Section
Medium (>0.1 m² and <1 m²)

Expand to show TLE details & history
Last TLE update: 4 days ago

TLE from 4 days ago
0 BREEZE-M DEB
1 39989U 08011DN  26169.40927584  .00000011  00000-0  00000+0 0  9992
2 39989  47.3233 225.3641 5618162  42.2207 349.5794  3.56425469 34418
Epoch: 2026-06-18T09:49Z
TLE epoch observation values (Epoch: 2026-06-18T09:49:21.432Z)
Latitude
-0°
Longitude
171.385°
Altitude
2,359.646 km
Speed
8.32 km/s
True Right ascension
15h 01m 30s
True Declination
0° 00' 00"
Sunlit
Object was in partial shadow at epoch
Visualization orbit readout
Latitude
Unknown
Longitude
Unknown
Altitude
Unknown
Speed
Unknown
Apparent Right ascension
Unknown
Apparent Declination
Unknown
Sunlit
N/A
Visualization observer readout
Local Sidereal Time
00:39:49
Azimuth
Unknown
Elevation
Unknown
Doppler factor
Unknown
Orbital elements
Apogee altitude
21,897.065 km
Perigee altitude
1,554.765 km
Semi-major axis
18,104.052 km
Eccentricity
0.56182
Inclination
47.3233°
RAAN
225.3641°
Arg. of periapsis
42.2207°
True anomaly
317.98267°
Mean anomaly
349.5794°
Eccentric anomaly
337.0039°
Mean motion
0.891 °/min
Orbital period
404.04 mins
BSTAR
0
Loading maneuver chart data...
Computing Atmospheric mass density...
Loading historical data...
Loading historical data...
Loading historical data...
Loading historical data...
Loading historical data...
Loading historical data...
Loading historical data...

Documentation

Showing up to 5 results
|